This is the latest recevied weather packets stored in our database for station/object WW7CH-15. If no packets are shown the sender has not sent any weather packets the latest 10 day(s).
| Time | Temp. | Humidity | Pressure | Rain* | Wind** | Luminosity | Snow |
|---|---|---|---|---|---|---|---|
| 1777689019 | 21.11° C | 47% | - | 0 mm | - | - | - |
| 1777688719 | 21.11° C | 47% | - | 0 mm | - | - | - |
| 1777688419 | 21.11° C | 46% | - | 0 mm | - | - | - |
| 1777688119 | 21.67° C | 46% | - | 0 mm | - | - | - |
| 1777687819 | 21.67° C | 46% | - | 0 mm | - | - | - |
| 1777687519 | 21.67° C | 46% | - | 0 mm | - | - | - |
| 1777674319 | 22.22° C | 53% | - | 0 mm | - | - | - |
| 1777674019 | 22.22° C | 53% | - | 0 mm | - | - | - |
| 1777673719 | 21.67° C | 54% | - | 0 mm | - | - | - |
| 1777673119 | 21.67° C | 53% | - | 0 mm | - | - | - |
| 1777672219 | 21.67° C | 53% | - | 0 mm | - | - | - |
| 1777671319 | 21.67° C | 53% | - | 0 mm | - | - | - |
| 1777671019 | 21.67° C | 54% | - | 0 mm | - | - | - |
| 1777670419 | 21.67° C | 55% | - | 0 mm | - | - | - |
| 1777670119 | 21.11° C | 54% | - | 0 mm | - | - | - |
| 1777669519 | 21.11° C | 55% | - | 0 mm | - | - | - |
| 1777669219 | 21.11° C | 54% | - | 0 mm | - | - | - |
| 1777668919 | 21.11° C | 56% | - | 0 mm | - | - | - |
| 1777667419 | 20.56° C | 54% | - | 0 mm | - | - | - |
| 1777667119 | 20° C | 56% | - | 0 mm | - | - | - |
| 1777665019 | 19.44° C | 56% | - | 0 mm | - | - | - |
| 1777663519 | 18.89° C | 59% | - | 0 mm | - | - | - |
| 1777663219 | 18.33° C | 58% | - | 0 mm | - | - | - |
| 1777662919 | 18.33° C | 59% | - | 0 mm | - | - | - |
| 1777662619 | 18.33° C | 58% | - | 0 mm | - | - | - |
* Rain latest hour (hover to see other rain measurements)
** Current wind speed in m/s (hover to see current wind gust speed)